Regional Weather Roundup
Issued by NWS

Home | Current Version | Previous Version | Graphics & Text | Print | Product List | Glossary On
Versions: 1 2 3 4 5 6 7 8 9 10 11 12 13 14 15 16 17 18 19 20 21 22 23 24 25 26 27 28 29 30 31 32 33 34 35 36 37 38 39 40 41 42 43 44 45 46 47 48 49 50
451
ASUS43 KBIS 290402
RWRND

NORTH DAKOTA REGIONAL WEATHER ROUNDUP
NATIONAL WEATHER SERVICE BISMARCK ND
1100 PM CDT THU APR 28 2016

NOTE: "FAIR" INDICATES FEW OR NO CLOUDS BELOW 12,000 FEET WITH NO
SIGNIFICANT WEATHER AND/OR OBSTRUCTIONS TO VISIBILITY.


NDZ001>003-009>011-017-290500-
NORTHWEST NORTH DAKOTA

CITY           SKY/WX    TMP DP  RH WIND       PRES   REMARKS
WILLISTON      CLOUDY    49  23  36 CALM      30.17R
MINOT          CLOUDY    43  23  45 N3        30.18R
MINOT AFB      PTCLDY    47  20  34 E9        30.18R
$$

NDZ018>021-031>035-040>046-290500-
SOUTHWEST NORTH DAKOTA

CITY           SKY/WX    TMP DP  RH WIND       PRES   REMARKS
BISMARCK       CLOUDY    47  32  56 NE7       30.16R
DICKINSON      CLOUDY    41  27  57 E5        30.12S
GARRISON         N/A     44  21  40 NE5       30.17R
HETTINGER ARPT CLOUDY    40  36  86 NW5       30.15R
$$

NDZ004>008-012>016-024-026-027-054-290500-
NORTHEAST NORTH DAKOTA

CITY           SKY/WX    TMP DP  RH WIND       PRES   REMARKS
GRAND FORKS    PTCLDY    40  30  67 NE6       30.16R
GRND FRKS AFB  CLOUDY    37  27  65 NE5       30.16R
DEVILS LAKE    CLOUDY    42  30  62 N7        30.19R
$$

NDZ022-023-025-028>030-036>039-047>053-290500-
SOUTHEAST NORTH DAKOTA

CITY           SKY/WX    TMP DP  RH WIND       PRES   REMARKS
FARGO          CLOUDY    51  28  41 NE8       30.12R
JAMESTOWN      CLOUDY    42  30  62 NE8       30.14S
$$





USA.gov is the U.S. government's official web portal to all federal, state and local government web resources and services.